Location: Unspecified
(0.0000°N, 0.0000°E)
Time: 16:03:31
(UTC+00:00)

Tiangong 2 - Pass Details

Date: 16 January 2017
Orbit: 369 x 380 km, 42.8° (Epoch: 18 January)

Event Time Altitude Azimuth Distance (km) Brightness Sun altitude
Exits shadow 05:35:14 10° 306° (NW) 1,377 3.2 -8.1°
Reaches altitude 10° 05:35:18 10° 308° (NW) 1,373 3.2 -8.0°
Maximum altitude 05:35:44 10° 316° (NW) 1,360 3.3 -7.9°
Drops below altitude 10° 05:36:11 10° 324° (NW) 1,373 3.4 -7.8°
Sets 05:39:55 0° 11° (N) 2,222 4.8 -7.0°
